CAPE
0 0 0 0 0 0 0 0 0 0 0 0 0 0 0 0 0 0 0 0 0 0 0 0 0 0 0 0 0 48 153 218 106 23 12 2 2 1 0 0 0 0 0 0
0 0 0 0 0 0 0 0 0 0 0 0 0 0 0 0 0 0 0 0 0 0 0 0 0 0 0 0 0 0 1 161 74 42 50 30 1 3 1 1 0 0 0 0
0 0 0 0 0 0 0 0 0 0 0 0 0 0 0 0 0 0 0 0 0 0 0 0 0 0 0 0 0 0 0 1 10 8 24 10 14 21 9 1 0 0 0 0
0 0 0 0 0 0 0 0 0 0 0 0 0 0 0 0 0 0 0 0 0 0 0 0 0 0 0 0 0 0 0 0 2 1 7 27 30 18 0 3 0 0 0 0
0 0 0 0 0 0 0 0 0 0 0 0 0 0 0 0 0 0 0 0 0 0 0 0 0 0 0 0 0 0 0 0 0 2 2 2 7 11 8 0 0 5 0 0
0 0 0 0 0 0 0 0 0 0 0 0 0 0 0 0 0 0 0 0 1 0 0 0 0 0 0 0 0 0 0 0 0 0 1 2 0 0 0 0 0 1 1 0
0 0 0 0 0 0 0 0 0 0 0 0 0 0 0 0 0 0 0 0 0 0 0 0 0 1 0 0 0 0 0 0 0 0 0 0 1 0 0 0 0 0 0 0
0 0 0 0 0 0 0 0 0 0 0 0 0 0 0 0 0 0 0 0 0 0 0 1 0 0 0 0 0 0 0 0 0 0 0 0 0 3 0 0 3 0 0 0
0 0 0 0 0 0 0 0 0 0 0 0 0 0 0 0 0 0 0 0 1 0 0 2 1 1 0 0 1 1 0 1 0 0 0 0 0 1 4 9 5 8 2 0
0 0 0 0 0 0 0 0 0 0 0 0 0 0 0 0 0 0 0 1 2 1 0 2 2 2 2 1 1 1 1 2 2 1 0 0 0 0 21 37 33 19 6 2
0 0 0 0 0 0 0 0 0 0 0 0 0 0 0 0 1 0 0 0 0 2 1 2 2 1 2 1 1 1 2 2 2 1 1 1 0 0 11 63 69 91 43 13
0 0 0 0 0 0 1 0 0 0 0 0 0 0 1 0 1 0 0 0 0 0 0 0 2 1 3 2 2 2 2 3 2 2 3 1 3 0 7 9 2 1 2 1
0 0 0 0 0 0 0 0 0 0 0 0 0 0 0 0 0 0 0 0 0 0 0 0 1 2 2 3 2 2 2 2 2 2 2 2 4 4 2 2 2 1 1 1
0 0 0 0 0 0 0 0 0 1 0 0 0 0 0 0 0 0 0 0 0 0 0 0 0 2 1 3 3 3 2 2 2 2 3 4 5 5 5 5 4 3 3 3
0 0 0 0 0 0 0 1 1 3 0 0 0 0 0 0 0 0 0 0 0 0 0 0 0 0 1 2 1 0 0 2 0 3 3 4 3 3 3 5 3 2 1 1
0 0 0 0 0 1 0 0 0 0 0 0 0 0 0 0 0 0 0 0 0 0 0 0 0 0 1 2 2 0 2 1 0 0 2 3 2 4 5 3 2 0 0 0
0 0 0 0 0 0 0 0 0 0 0 0 0 0 0 0 0 0 0 0 0 0 0 0 0 0 0 0 3 2 1 2 0 0 0 1 2 1 0 0 0 0 0 0
0 0 0 0 0 0 0 0 0 0 0 0 0 0 0 0 0 0 0 0 0 0 0 0 0 0 0 0 0 0 0 0 0 0 0 0 0 0 0 0 0 0 0 0
0 0 0 0 0 0 0 0 0 0 0 0 0 0 0 0 0 0 0 0 0 0 0 0 0 0 0 0 0 0 0 0 0 0 0 0 0 0 0 0 0 0 0 0
0 0 0 0 0 0 0 0 0 0 0 0 0 0 0 0 0 0 0 0 0 0 0 0 0 0 0 0 0 0 0 0 0 0 0 0 0 0 0 0 0 0 0 0
0 0 0 0 0 0 0 0 0 0 0 0 0 0 0 0 0 0 0 0 0 0 0 0 0 0 0 0 0 0 0 0 0 0 0 0 0 0 0 0 0 0 0 0
0 0 0 0 0 0 0 0 0 0 0 0 0 0 0 0 0 0 0 0 0 0 0 0 0 0 0 0 0 0 0 0 0 0 0 0 0 0 0 0 0 0 0 0
0 0 0 0 0 0 0 0 0 0 0 0 0 0 0 0 0 0 0 0 0 0 0 0 0 0 0 0 0 0 0 0 0 0 0 0 0 0 0 0 0 0 0 0
0 0 0 0 0 0 0 0 0 0 0 0 0 0 0 0 0 0 0 0 0 0 0 0 0 0 0 0 0 0 0 0 0 0 0 0 0 0 0 0 0 0 0 0
0 0 0 0 0 0 0 0 0 0 0 0 0 0 0 0 0 0 0 0 0 0 0 0 0 0 0 0 0 0 0 0 0 0 0 0 0 0 0 0 0 0 1 1
0 0 0 0 0 0 0 0 0 0 0 0 0 0 0 0 0 0 0 0 0 0 0 0 0 0 0 0 0 0 0 0 0 0 0 0 0 0 0 0 0 0 0 0
CIN
-0 -0 -0 -0 -0 -0 -0 -0 -0 -0 -0 -0 -0 -0 -0 -0 -0 -0 -0 -0 -0 -0 -0 -0 -0 -0 -0 -0 -0 -32 -19 -29 -16 -55 -22 -0 -5 -0 -0 -0 -0 -0 -0 -0
-0 -0 -0 -0 -0 -0 -0 -0 -0 -0 -0 -0 -0 -0 -0 -0 -0 -0 -0 -0 -0 -0 -0 -0 -0 -0 -0 -0 -0 -0 -0 -6 -44 -20 -4 -8 -0 -20 -0 -57 -0 -0 -0 -0
-0 -0 -0 -0 -0 -0 -0 -0 -0 -0 -0 -0 -0 -0 -0 -0 -0 -0 -0 -0 -0 -0 -0 -0 -0 -0 -0 -0 -0 -0 -0 -0 -3 -43 -22 -5 -9 -31 -16 -2 -0 -0 -0 -0
-0 -0 -0 -0 -0 -0 -0 -0 -0 -0 -0 -0 -0 -0 -0 -0 -0 -0 -0 -0 -0 -0 -0 -0 -0 -0 -0 -0 -0 -0 -0 -0 -0 -0 -4 -6 -9 -10 -6 -48 -0 -0 -0 -0
-0 -0 -0 -0 -0 -0 -0 -0 -0 -0 -0 -0 -0 -0 -0 -0 -0 -0 -0 -0 -0 -0 -0 -0 -0 -0 -0 -0 -0 -0 -0 -0 -0 -0 -0 -0 -1 -9 -20 -0 -0 -61 -0 -0
-0 -0 -0 -0 -0 -0 -0 -0 -0 -0 -0 -0 -0 -0 -0 -0 -0 -0 -0 -0 -0 -0 -0 -0 -0 -0 -0 -0 -0 -0 -0 -0 -0 -0 -0 -1 -0 -0 -0 -0 -0 -0 -0 -0
-0 -0 -0 -0 -0 -0 -0 -0 -0 -0 -0 -0 -0 -0 -0 -0 -0 -0 -0 -0 -0 -0 -0 -0 -0 -0 -0 -0 -0 -0 -0 -0 -0 -0 -0 -0 -2 -0 -0 -0 -0 -0 -0 -0
-0 -0 -0 -0 -0 -0 -0 -0 -0 -0 -0 -0 -0 -0 -0 -0 -0 -0 -0 -0 -0 -0 -0 -0 -0 -0 -0 -0 -0 -0 -0 -0 -0 -0 -0 -0 -0 -0 -0 -0 -115 -0 -0 -0
-0 -0 -0 -0 -0 -0 -0 -0 -0 -0 -0 -0 -0 -0 -0 -0 -0 -0 -0 -0 -0 -0 -0 -0 -0 -0 -0 -0 -0 -0 -0 -0 -0 -0 -0 -0 -0 -0 -40 -101 -103 -111 -142 -20
-0 -0 -0 -0 -0 -0 -0 -0 -0 -0 -0 -0 -0 -0 -0 -0 -0 -0 -0 -0 -0 -0 -0 -0 -0 -0 -0 -0 -0 -0 -0 -0 -0 -0 -0 -0 -0 -0 -76 -67 -59 -78 -74 -55
-0 -0 -0 -0 -0 -0 -0 -0 -0 -0 -0 -0 -0 -0 -0 -0 -0 -0 -0 -0 -0 -0 -0 -0 -0 -0 -0 -0 -0 -0 -0 -0 -0 -0 -0 -0 -0 -0 -31 -51 -41 -15 -17 -21
-0 -0 -0 -0 -0 -0 -1 -0 -0 -0 -0 -0 -0 -0 -0 -0 -0 -0 -0 -0 -0 -0 -0 -0 -0 -0 -0 -0 -0 -0 -0 -0 -0 -0 -0 -0 -0 -0 -16 -5 -2 -2 -0 -0
-0 -0 -0 -0 -0 -0 -0 -0 -1 -0 -0 -0 -0 -0 -0 -0 -0 -0 -0 -0 -0 -0 -0 -0 -0 -0 -0 -0 -0 -0 -0 -0 -0 -0 -0 -0 -0 -0 -0 -0 -0 -0 -0 -0
-0 -0 -0 -0 -0 -0 -0 -0 -3 -1 -0 -0 -0 -0 -0 -0 -0 -0 -0 -0 -0 -0 -0 -0 -0 -0 -0 -0 -0 -0 -0 -0 -0 -0 -0 -0 -0 -0 -0 -0 -0 -0 -0 -0
-0 -0 -0 -0 -0 -0 -0 -0 -0 -0 -0 -0 -0 -0 -0 -0 -0 -0 -0 -0 -0 -0 -0 -0 -0 -0 -0 -0 -0 -0 -0 -0 -0 -0 -0 -0 -0 -0 -0 -0 -0 -0 -0 -0
-0 -0 -0 -0 -0 -0 -0 -0 -0 -0 -0 -0 -0 -0 -0 -0 -0 -0 -0 -0 -0 -0 -0 -0 -0 -0 -0 -0 -0 -0 -0 -0 -0 -0 -0 -0 -0 -0 -0 -0 -0 -0 -0 -0
-0 -0 -0 -0 -0 -0 -0 -0 -0 -0 -0 -0 -0 -0 -0 -0 -0 -0 -0 -0 -0 -0 -0 -0 -0 -0 -0 -0 -0 -0 -0 -0 -0 -0 -0 -0 -0 -0 -0 -0 -0 -0 -0 -0
-0 -0 -0 -0 -0 -0 -0 -0 -0 -0 -0 -0 -0 -0 -0 -0 -0 -0 -0 -0 -0 -0 -0 -0 -0 -0 -0 -0 -0 -0 -0 -0 -0 -0 -0 -0 -0 -0 -0 -0 -0 -0 -0 -0
-0 -0 -0 -0 -0 -0 -0 -0 -0 -0 -0 -0 -0 -0 -0 -0 -0 -0 -0 -0 -0 -0 -0 -0 -0 -0 -0 -0 -0 -0 -0 -0 -0 -0 -0 -0 -0 -0 -0 -0 -0 -0 -0 -0
-0 -0 -0 -0 -0 -0 -0 -0 -0 -0 -0 -0 -0 -0 -0 -0 -0 -0 -0 -0 -0 -0 -0 -0 -0 -0 -0 -0 -0 -0 -0 -0 -0 -0 -0 -0 -0 -0 -0 -0 -0 -0 -0 -0
-0 -0 -0 -0 -0 -0 -0 -0 -0 -0 -0 -0 -0 -0 -0 -0 -0 -0 -0 -0 -0 -0 -0 -0 -0 -0 -0 -0 -0 -0 -0 -0 -0 -0 -0 -0 -0 -0 -0 -0 -0 -0 -0 -0
-0 -0 -0 -0 -0 -0 -0 -0 -0 -0 -0 -0 -0 -0 -0 -0 -0 -0 -0 -0 -0 -0 -0 -0 -0 -0 -0 -0 -0 -0 -0 -0 -0 -0 -0 -0 -0 -0 -0 -0 -0 -0 -0 -0
-0 -0 -0 -0 -0 -0 -0 -0 -0 -0 -0 -0 -0 -0 -0 -0 -0 -0 -0 -0 -0 -0 -0 -0 -0 -0 -0 -0 -0 -0 -0 -0 -0 -0 -0 -0 -0 -0 -0 -0 -0 -0 -0 -0
-0 -0 -0 -0 -0 -0 -0 -0 -0 -0 -0 -0 -0 -0 -0 -0 -0 -0 -0 -0 -0 -0 -0 -0 -0 -0 -0 -0 -0 -0 -0 -0 -0 -0 -0 -0 -0 -0 -0 -0 -0 -0 -0 -0
-0 -0 -0 -0 -0 -0 -0 -0 -0 -0 -0 -0 -0 -0 -0 -0 -0 -0 -0 -0 -0 -0 -0 -0 -0 -0 -0 -0 -0 -0 -0 -0 -0 -0 -0 -0 -0 -0 -0 -0 -0 -0 -0 -0
-0 -0 -0 -0 -0 -0 -0 -0 -0 -0 -0 -0 -0 -0 -0 -0 -0 -0 -0 -0 -0 -0 -0 -0 -0 -0 -0 -0 -0 -0 -0 -0 -0 -0 -0 -0 -0 -0 -0 -0 -0 -0 -0 -0
Wind_Speed
28 30 31 25 23 19 19 19 21 19 19 19 16 14 17 17 14 16 19 21 23 24 25 25 25 25 24 25 31 34 31 20 30 24 23 20 21 22 23 21 19 16 15 13
26 32 24 22 23 20 20 19 23 16 21 17 16 12 13 15 14 15 18 20 24 26 26 27 27 25 25 27 28 28 31 29 21 28 30 29 28 29 27 24 22 20 18 16
30 25 22 22 23 21 19 21 22 20 23 14 14 14 14 14 15 17 18 20 22 25 28 28 28 28 27 28 28 30 31 31 29 27 27 30 26 26 21 23 24 23 21 19
25 23 24 23 22 21 19 18 17 21 21 17 17 17 16 17 17 20 22 23 24 26 27 28 30 29 30 30 29 30 31 32 31 28 28 27 28 28 24 23 23 27 24 21
25 23 24 23 21 20 16 17 16 16 17 17 18 18 18 18 20 24 25 26 27 28 29 30 31 32 32 31 31 31 31 31 32 32 30 31 31 29 27 27 31 25 29 21
23 19 19 20 17 16 9 16 17 19 16 16 18 18 19 19 22 26 27 28 29 31 31 32 33 33 33 33 33 34 33 33 32 33 33 32 29 29 27 25 29 27 20 14
22 23 19 21 20 20 27 20 17 16 18 15 17 18 18 18 20 25 28 30 31 31 32 34 35 35 36 36 36 36 36 36 34 34 35 35 33 31 28 27 27 26 24 24
28 26 23 21 21 18 22 21 20 15 13 11 18 16 14 16 21 25 28 30 31 32 33 34 35 36 37 38 38 37 37 37 37 36 36 37 36 34 31 30 28 27 26 24
26 22 19 20 19 22 20 22 14 17 15 11 10 8 14 22 24 27 30 31 32 33 34 35 36 36 37 37 37 37 38 38 37 37 37 37 38 36 34 32 30 30 29 28
21 22 19 18 17 19 20 19 18 17 14 10 10 10 10 21 23 27 26 27 28 29 30 31 33 35 35 34 34 34 35 37 38 38 37 37 37 38 34 31 31 31 30 28
20 21 20 19 19 18 18 21 21 16 14 11 8 10 11 21 24 22 24 26 27 28 30 32 32 33 34 33 32 32 32 33 35 37 37 38 38 35 34 31 29 30 30 30
20 20 20 20 16 16 15 21 22 22 22 12 14 9 13 10 16 20 21 24 24 27 31 31 31 32 31 31 30 27 28 29 29 30 31 33 30 26 24 25 25 25 26 28
18 21 23 23 20 18 16 16 22 22 21 17 19 9 12 12 8 8 14 18 21 30 31 32 32 31 32 29 28 27 28 28 28 27 26 25 24 23 20 19 20 20 21 22
18 18 18 21 20 19 17 12 21 21 21 21 8 15 5 9 9 10 10 21 23 29 30 31 31 31 28 27 28 28 29 30 30 28 25 21 20 18 18 16 16 16 17 19
18 17 18 14 12 12 11 8 5 22 22 21 22 22 6 10 12 12 8 7 18 25 19 23 27 29 30 28 28 28 30 30 30 27 25 19 16 15 13 14 13 13 14 16
17 16 20 18 19 15 12 5 5 6 15 26 26 25 14 12 14 14 10 12 25 23 12 18 21 26 31 30 29 28 29 31 30 27 23 17 13 13 11 11 12 12 14 15
16 17 20 19 19 16 14 9 9 8 13 12 18 14 12 12 12 11 10 20 22 20 8 4 29 4 5 26 30 29 28 29 28 25 21 13 12 12 11 10 10 12 14 15
13 16 17 16 20 22 16 13 10 7 6 7 10 9 9 11 11 12 13 12 16 20 23 20 25 20 20 22 32 30 28 27 25 23 18 14 13 15 12 11 11 13 15 17
12 13 14 17 18 13 11 10 11 10 6 6 9 9 8 9 15 7 8 11 15 18 19 20 22 25 27 29 29 33 32 19 20 8 9 8 8 14 10 10 12 14 16 19
12 13 12 15 17 18 17 14 14 14 10 10 11 7 6 9 15 15 14 13 14 16 18 20 22 24 26 27 17 15 21 27 12 6 3 9 12 10 11 12 13 15 16 20
10 10 7 9 11 10 6 13 16 17 14 14 15 11 6 7 9 14 12 13 14 15 16 18 20 22 21 10 17 21 20 13 15 16 13 4 6 2 3 5 7 9 13 21
6 8 10 12 11 13 13 16 13 13 13 13 15 16 16 10 8 9 9 11 12 13 14 15 17 14 10 10 15 18 19 15 14 16 15 15 14 13 8 3 2 12 19 24
8 5 9 4 10 11 9 9 9 10 10 11 13 14 14 13 10 6 5 7 10 14 16 16 15 14 14 13 13 14 13 14 15 17 16 14 12 12 11 8 4 8 17 23
12 10 13 14 12 6 6 9 9 7 8 10 13 16 16 14 14 16 18 18 17 18 18 18 17 16 15 15 15 15 15 15 17 17 18 18 17 15 18 21 27 29 29 30
12 5 15 17 7 5 10 10 13 14 12 12 13 16 18 17 17 18 20 20 20 20 19 19 18 17 17 18 18 17 17 18 19 19 19 19 19 20 22 25 26 27 28 29
13 15 11 12 15 16 14 13 3 12 16 17 14 14 18 19 19 19 20 21 20 20 19 18 18 18 19 18 18 18 18 18 19 18 18 18 19 19 20 23 24 25 25 26
Wind_Direction
41 35 30 38 37 34 18 9 351 334 320 316 325 326 319 315 312 297 293 290 288 288 292 295 300 298 293 287 276 271 271 270 262 256 254 245 243 248 253 254 254 254 256 254
37 32 40 46 45 44 27 9 340 3 320 318 313 334 343 338 330 318 305 300 294 290 292 295 298 299 298 291 287 284 275 273 270 267 264 266 255 257 254 254 253 253 253 254
35 40 46 47 42 44 42 19 356 341 324 328 311 311 316 325 336 332 327 316 308 300 291 294 297 295 298 295 293 287 283 279 274 274 273 275 280 273 253 260 260 258 257 256
41 44 44 45 42 42 40 29 15 346 319 304 306 288 302 303 311 323 321 321 313 308 304 295 297 297 295 296 295 294 287 283 280 273 272 272 273 273 271 269 267 264 258 258
37 40 40 42 43 45 49 41 39 33 346 308 295 290 293 300 296 307 314 317 317 314 308 302 297 296 296 295 294 293 292 288 283 280 271 271 273 278 282 276 272 275 262 256
43 48 48 43 46 56 55 55 59 51 49 318 294 295 289 297 298 297 306 313 315 314 312 308 303 299 295 295 293 292 290 289 286 282 278 271 273 275 277 280 275 275 275 264
35 42 47 40 44 45 26 47 49 58 51 10 299 303 299 306 313 307 303 308 314 315 315 311 308 302 297 294 292 291 289 285 287 284 280 278 272 274 275 276 278 280 282 281
26 30 40 41 45 45 41 52 55 56 66 73 314 327 327 323 320 315 316 317 319 317 315 312 311 307 302 297 292 289 288 285 285 284 281 277 276 273 275 276 277 280 282 283
28 34 45 47 46 29 32 39 71 64 71 102 124 21 334 302 306 311 314 318 320 320 319 317 316 314 309 303 298 295 289 284 285 285 282 279 275 274 273 275 278 279 283 287
37 31 42 44 46 27 22 34 42 61 69 103 113 128 142 284 288 304 306 311 312 312 312 313 316 317 315 313 308 301 297 290 287 284 282 281 277 274 273 274 275 278 283 287
40 39 36 41 43 39 18 2 3 50 79 91 111 119 118 275 294 290 308 318 315 313 316 319 319 319 318 316 311 307 305 301 295 289 284 280 277 277 272 271 274 277 282 286
40 41 33 35 45 45 37 339 334 334 316 63 57 166 88 200 254 285 291 303 302 313 326 324 322 323 321 320 317 307 308 309 309 306 297 285 283 279 279 277 277 280 285 291
44 38 31 32 42 42 37 12 320 303 324 342 347 96 85 64 107 124 266 291 305 338 336 337 334 331 333 329 333 334 333 331 330 327 317 303 290 279 277 285 288 287 292 298
42 39 37 30 30 34 30 42 324 310 320 313 191 236 121 79 115 105 91 306 315 339 338 340 341 340 336 335 338 341 341 342 340 338 330 316 298 290 281 284 292 296 299 305
37 36 32 29 23 31 34 50 84 303 303 316 315 275 87 70 85 130 149 226 307 333 321 330 339 343 345 344 346 344 349 350 4 351 344 330 299 291 296 293 296 310 316 319
33 36 27 28 37 44 30 54 113 48 337 298 309 261 12 70 57 78 133 96 15 333 78 322 333 344 351 350 351 349 355 9 14 3 350 340 317 300 309 300 304 319 327 333
29 35 29 34 35 28 33 65 110 72 4 6 337 2 34 82 78 108 115 16 20 50 100 306 4 353 24 33 12 358 354 12 14 6 351 330 330 323 324 323 325 326 336 342
27 29 30 30 31 37 52 66 81 113 94 140 13 56 85 107 86 57 54 68 66 50 40 58 42 27 61 65 46 16 9 7 6 357 343 327 335 350 350 344 339 336 345 354
16 29 33 36 34 27 43 73 73 77 80 131 143 120 93 41 2 172 98 86 52 48 53 54 52 43 37 38 54 46 33 347 356 323 327 324 324 345 343 352 357 354 4 15
14 18 30 32 34 41 49 70 79 69 67 98 131 115 72 29 350 6 30 57 51 52 53 50 48 32 27 34 96 104 89 27 343 315 290 326 351 352 0 360 6 6 12 22
12 21 30 32 36 39 74 75 78 60 69 95 133 126 75 28 12 0 33 36 43 48 48 47 45 33 14 130 105 94 97 113 112 113 123 128 356 42 17 8 358 358 2 21
356 22 27 35 38 42 74 74 76 77 94 112 131 148 152 134 55 19 36 35 49 50 56 72 84 140 159 150 117 106 107 121 129 129 128 124 128 128 138 143 140 359 10 19
324 343 2 66 33 42 108 78 123 92 114 127 141 142 145 152 146 90 79 87 101 128 141 148 142 139 138 141 145 138 142 140 136 135 136 138 139 138 137 142 154 342 1 13
305 301 321 340 0 190 183 185 184 128 145 152 164 162 154 154 153 159 162 164 159 159 165 167 168 166 160 161 156 146 148 149 140 140 137 134 131 129 118 104 79 56 36 36
304 298 303 309 276 313 225 206 204 196 186 180 168 169 169 164 166 166 168 168 168 167 165 165 162 158 153 154 153 149 147 143 133 131 129 125 116 104 86 66 44 38 34 33
280 283 273 292 315 325 333 348 146 191 197 194 177 170 176 176 176 169 173 172 167 167 166 166 167 168 165 158 153 147 143 134 124 116 109 105 99 91 78 61 53 45 44 39